Theta_e
274 273 273 273 273 272 272 272 271 272 271 271 271 271 271 271 271 271 271 271 271 271 271 271 271 272 272 272 272 272 272 273 274 274 273 273 273 273 273 273 273 273 273 273 274 274 273 274 274 275 275 275 275 275 275 275 277 278 281 282 282 284 286 287 286 288 291 294 294 294 296 297 296 298 298 299 299 301 303 315 320 318 319 319 316
272 272 272 272 271 271 271 271 271 270 270 270 270 270 270 270 271 271 270 270 271 271 271 271 271 271 271 271 271 271 272 272 272 273 272 271 271 271 272 272 272 272 272 272 272 273 273 273 273 274 275 274 274 274 276 278 279 280 281 281 282 284 287 288 287 287 288 292 292 295 295 297 295 298 297 298 299 300 302 310 318 318 318 318 318
272 272 271 271 270 270 270 270 270 269 269 269 269 269 269 270 270 270 270 270 270 270 270 270 270 270 269 269 269 270 270 271 271 271 270 270 269 270 270 270 271 271 271 271 271 272 272 272 273 273 274 273 273 273 274 274 275 275 277 280 282 284 287 290 289 287 288 290 293 292 294 295 295 295 297 299 299 300 300 304 314 316 317 318 317
271 271 270 270 270 269 269 269 269 268 268 268 268 269 269 269 269 269 269 269 269 269 269 269 268 268 267 267 268 268 268 269 269 269 269 269 268 268 269 269 269 270 270 270 271 271 271 271 272 272 273 272 272 272 273 274 274 275 276 278 281 283 285 289 291 289 290 289 291 292 293 293 294 296 298 299 299 299 300 302 312 315 316 316 316
270 270 270 269 269 268 268 268 268 268 268 268 268 268 268 268 269 268 268 268 267 267 267 267 266 266 266 266 266 267 267 267 267 267 267 268 268 267 268 268 268 269 269 269 271 270 270 271 271 272 272 271 271 272 272 272 273 275 278 281 282 283 286 289 290 290 289 288 290 292 293 293 295 295 297 296 297 298 300 302 308 313 315 316 316
270 269 269 268 268 267 268 268 267 267 267 267 268 268 268 268 268 267 267 266 265 265 265 265 265 265 265 265 265 265 266 266 266 266 266 267 267 267 267 267 267 268 268 269 269 270 270 270 271 271 271 271 271 271 272 272 273 274 276 278 281 283 285 287 290 290 290 289 290 289 292 292 291 293 295 296 296 295 297 300 306 311 313 314 315
269 268 268 267 267 267 267 267 267 267 267 267 267 267 267 266 266 265 265 264 264 263 264 264 264 264 264 264 265 265 265 265 265 265 266 266 266 266 266 267 267 267 268 268 269 270 270 271 271 271 271 271 271 271 271 271 272 273 275 276 277 277 279 283 288 289 289 289 289 290 290 292 292 291 294 297 297 297 296 296 301 306 310 312 311
268 267 267 266 267 267 267 267 267 267 267 267 266 266 265 265 264 264 263 262 262 262 263 263 263 264 264 264 264 264 264 265 265 265 266 266 266 266 266 267 267 267 268 269 269 270 270 271 271 271 272 272 272 272 272 272 272 273 274 276 277 277 278 282 286 288 288 288 288 288 290 290 291 293 295 295 294 295 297 297 299 304 307 310 311
267 266 266 266 266 266 266 266 267 266 266 265 265 264 263 263 262 262 262 262 262 262 262 262 262 262 263 264 264 264 264 265 265 265 266 266 267 267 268 268 268 268 268 269 270 270 270 271 271 272 272 274 275 275 275 275 273 272 274 276 278 280 280 281 284 286 287 287 286 288 288 289 290 291 291 292 292 293 296 298 300 306 308 308 309
266 266 266 266 266 266 266 266 266 265 264 264 263 263 262 261 261 260 261 261 261 262 262 262 262 262 262 263 264 264 265 265 267 271 272 269 269 270 270 270 270 270 270 270 270 271 271 271 271 274 275 276 276 277 277 278 278 277 275 276 276 278 279 281 284 286 286 285 285 286 286 286 288 290 291 292 295 296 295 296 297 304 307 306 306
265 265 265 265 265 265 265 265 264 263 263 262 261 261 260 260 260 260 260 260 260 261 261 262 262 263 263 264 264 264 265 265 269 272 273 274 271 270 270 270 271 271 271 271 271 272 272 272 272 273 275 275 275 277 278 278 279 279 280 281 281 279 278 278 280 285 285 285 286 286 285 286 287 289 290 293 295 295 296 297 298 303 303 302 300
264 264 265 264 265 264 264 263 262 262 261 260 260 259 259 259 259 259 259 259 260 261 261 262 263 263 264 263 263 264 264 268 271 272 273 274 274 271 270 270 271 271 272 272 272 273 273 273 274 274 274 274 274 274 276 278 279 279 280 281 282 283 284 282 281 282 285 285 285 285 286 286 286 287 288 290 293 296 297 298 298 302 303 302 302
264 264 264 264 264 263 262 262 261 260 260 259 259 258 258 258 258 258 259 260 260 260 261 262 262 263 263 263 263 264 264 268 271 272 273 274 275 274 271 271 271 271 272 273 273 273 273 273 274 274 275 277 276 275 275 275 278 279 279 280 282 283 284 285 286 284 285 285 285 285 286 286 286 286 288 288 291 293 297 297 299 302 304 303 302
263 263 263 263 262 262 261 260 259 259 259 258 258 258 257 258 258 259 259 260 260 261 261 262 262 262 262 262 263 263 263 267 271 272 273 274 275 275 272 272 272 272 272 273 273 274 274 274 274 274 275 275 275 275 275 275 275 275 275 276 277 280 284 285 285 286 287 286 286 285 287 288 286 287 288 290 288 286 289 295 298 301 303 304 305
263 263 262 262 261 260 260 259 258 258 257 257 257 257 257 258 258 259 259 260 260 260 261 261 261 261 261 262 262 262 263 269 271 273 273 274 275 275 272 272 271 271 272 273 274 275 275 275 275 275 275 275 276 276 275 275 275 275 275 276 279 281 282 283 285 286 287 288 287 287 288 288 288 288 289 290 289 289 289 290 297 302 304 304 305
262 262 261 261 260 260 259 258 257 257 257 257 256 257 257 258 258 259 259 260 261 261 261 261 261 261 261 261 261 261 263 269 271 272 274 275 276 272 271 271 271 271 272 273 274 274 275 276 276 276 276 276 277 279 279 277 275 274 274 275 276 279 283 286 288 288 288 289 289 288 288 289 289 289 289 290 290 291 289 290 292 298 301 300 300
262 261 260 260 259 258 258 257 256 256 256 256 256 256 257 257 258 259 259 259 260 260 260 260 261 261 261 261 261 261 262 266 271 273 274 275 274 271 271 271 271 271 272 273 273 273 274 274 275 275 276 276 278 280 280 280 276 275 275 275 278 280 281 283 285 287 289 289 289 290 290 290 291 291 291 292 290 290 287 286 286 293 300 299 298
261 260 259 259 258 258 257 256 256 256 255 255 256 257 257 258 258 259 259 258 259 259 260 260 261 261 261 261 261 261 262 266 271 273 274 275 274 271 271 271 271 271 272 272 273 273 274 276 277 276 276 277 279 280 281 279 277 276 276 276 276 277 279 281 283 285 286 288 289 289 290 290 290 291 291 291 291 291 287 285 287 290 297 300 298
260 259 259 259 258 257 256 256 256 255 255 255 256 255 256 257 258 259 259 259 259 259 260 260 260 261 261 261 265 264 263 266 271 272 274 275 273 272 271 271 270 271 271 271 273 273 273 275 277 277 277 278 281 281 281 280 277 277 277 277 277 277 279 282 282 283 284 285 286 287 287 288 288 288 288 290 290 290 290 288 288 288 295 299 300
260 259 258 257 257 256 256 255 255 255 255 255 255 256 257 257 258 258 258 259 258 259 259 260 260 261 262 263 263 264 265 266 268 273 274 275 275 272 271 270 270 270 271 271 272 273 273 274 275 278 280 281 281 282 282 282 280 279 278 278 277 278 281 282 283 284 284 285 286 286 286 287 287 288 288 288 289 289 290 291 291 290 295 300 300
258 258 257 256 256 255 255 255 254 254 255 255 256 256 257 257 257 257 257 258 258 258 259 260 261 263 265 266 266 266 267 268 269 273 274 275 275 274 271 271 271 271 272 272 272 272 273 274 275 278 280 281 281 282 283 283 283 281 280 279 280 282 284 283 283 284 284 285 285 285 286 286 286 287 287 288 288 289 291 292 293 294 297 301 301
257 256 255 255 255 254 253 254 254 254 254 255 255 255 257 257 257 257 257 257 257 258 259 262 263 264 265 266 266 267 269 271 269 271 273 274 275 276 272 272 273 272 271 271 271 272 273 273 274 276 279 280 280 281 282 283 284 282 282 284 284 285 283 284 284 284 285 285 285 285 285 285 285 286 286 287 288 289 292 295 295 297 300 304 303
256 255 254 254 253 253 253 253 253 254 254 255 255 255 256 256 256 256 256 257 257 258 261 263 263 263 265 266 267 267 268 269 271 270 273 274 275 275 276 274 276 273 271 270 271 271 273 273 274 277 278 279 280 281 282 283 283 282 284 285 285 285 284 284 284 284 284 284 284 284 284 285 285 285 286 287 289 291 294 296 298 299 300 303 306
254 254 253 253 252 252 252 253 253 253 253 254 254 254 254 255 255 256 256 257 258 259 261 262 263 264 264 265 266 267 268 268 270 272 271 273 275 275 276 276 276 273 272 271 271 272 272 273 274 277 278 279 280 281 282 282 281 283 285 285 285 285 284 284 284 284 284 284 284 284 284 285 286 286 286 288 289 293 296 298 300 301 302 303 305
252 252 251 251 251 251 252 253 253 252 253 253 253 254 254 254 254 256 256 257 259 260 261 262 263 264 264 264 265 266 267 268 268 270 272 273 274 275 275 275 275 275 271 271 272 272 274 277 278 279 279 280 281 281 282 282 283 283 284 284 284 284 284 284 284 284 284 283 284 284 285 286 286 287 288 290 292 295 297 298 299 299 300 299 298
251 250 250 251 251 251 252 252 253 253 253 253 253 253 254 254 255 255 257 258 259 260 260 262 264 263 264 264 265 265 267 267 267 268 270 271 272 273 274 274 274 274 273 272 274 275 276 277 277 278 278 278 278 278 278 279 281 282 283 284 284 284 284 283 284 283 283 284 284 285 285 287 287 288 289 290 291 294 296 297 298 296 292 294 295
251 251 250 250 251 251 252 253 253 253 253 253 253 254 254 254 255 257 258 259 259 260 261 263 263 263 263 264 264 265 266 266 267 268 269 269 269 270 270 270 272 272 271 270 272 271 272 273 274 277 277 279 279 280 280 281 280 281 282 283 284 284 284 284 284 284 284 285 285 286 286 287 288 288 288 289 291 295 297 296 296 294 296 298 297
250 250 250 251 251 251 251 254 253 253 252 252 253 253 254 255 256 258 259 260 260 261 263 263 263 263 263 264 264 264 265 266 266 267 268 269 269 269 269 269 268 269 269 270 269 268 269 272 274 276 277 277 277 278 279 280 280 281 282 283 284 284 284 285 285 285 285 286 286 287 286 287 286 287 288 290 293 296 296 295 296 296 296 297 296
251 250 251 251 251 251 251 251 252 252 252 251 252 253 254 255 257 259 262 263 263 264 264 264 264 265 265 264 264 264 265 265 267 272 270 272 269 268 267 268 268 269 271 273 268 266 266 267 268 269 270 270 272 274 276 278 281 284 284 284 284 284 284 284 284 284 285 285 285 285 285 286 286 287 288 291 294 295 295 296 296 296 296 297 296
250 251 251 251 250 251 251 252 252 252 252 252 252 253 257 262 262 261 261 265 268 269 268 265 265 266 265 266 266 265 265 267 272 273 273 273 273 272 272 272 272 271 272 271 268 264 264 264 265 266 267 267 268 269 270 271 273 275 282 284 284 284 284 284 285 285 285 285 285 285 285 286 286 287 289 292 294 295 294 294 295 296 295 296 295
251 251 251 250 252 251 251 252 252 252 252 252 252 252 253 254 260 263 265 266 266 268 268 268 269 269 267 265 267 271 271 272 272 272 272 272 272 272 271 271 271 272 272 266 263 263 262 262 263 264 265 266 266 266 268 268 269 271 273 278 285 285 285 285 285 286 285 285 285 286 286 286 286 288 290 293 293 294 294 294 295 295 296 296 295
251 251 251 251 253 253 252 252 252 251 251 252 252 252 251 252 253 260 264 264 265 266 267 267 268 268 269 268 267 266 269 270 271 271 271 272 271 271 270 269 270 270 270 268 262 261 262 262 262 263 264 264 265 266 266 266 267 268 270 272 275 282 285 285 286 286 286 286 286 286 286 286 287 289 291 293 293 293 294 294 294 295 295 296 295
251 250 251 252 252 253 252 252 252 251 250 250 250 250 251 250 250 251 254 262 264 264 264 265 266 267 268 269 269 270 270 270 271 271 271 271 270 269 269 267 268 269 268 263 261 261 261 262 262 263 263 263 264 264 265 266 266 267 268 269 271 273 277 283 286 286 286 286 286 286 286 287 288 290 291 292 292 293 293 293 294 295 295 294 293
251 251 251 252 252 252 252 252 251 251 251 251 250 252 251 251 250 250 250 250 252 257 261 263 264 265 266 268 268 270 270 269 270 270 270 269 269 268 267 262 267 268 265 260 261 260 261 261 262 262 263 263 264 264 264 265 266 266 267 268 269 271 273 276 282 285 286 286 286 286 286 287 289 291 292 293 293 293 293 293 294 294 294 294 293
251 252 253 253 252 252 253 253 252 251 250 250 251 251 250 251 252 250 249 249 249 250 251 253 257 262 262 263 266 269 269 269 269 269 269 269 268 267 263 257 256 257 258 258 260 260 261 261 262 262 263 263 263 264 264 264 265 265 265 266 267 269 270 273 277 283 286 286 286 286 286 287 289 291 292 292 293 293 293 293 294 294 294 293 293
252 253 253 253 253 253 252 251 252 250 250 251 252 251 252 251 250 249 250 250 249 249 250 251 252 257 262 263 266 267 268 267 267 267 267 267 266 264 255 255 255 255 256 257 258 259 261 261 262 262 263 263 264 264 264 264 265 265 265 266 266 267 268 270 273 277 282 286 286 286 286 288 290 290 292 292 292 293 294 293 294 294 294 294 293
252 253 253 253 252 252 251 250 249 250 253 252 251 250 250 249 249 248 248 247 249 250 250 249 251 252 256 257 261 264 266 265 265 265 264 265 264 258 255 255 255 255 255 256 257 259 260 261 262 262 263 263 263 264 264 264 265 265 266 266 266 266 267 269 271 274 276 283 286 286 286 288 290 291 291 292 292 293 293 293 294 293 293 292 291
252 252 252 252 252 251 251 250 250 252 250 251 250 247 247 247 247 247 247 247 249 249 248 249 252 250 251 253 258 260 258 260 262 261 260 260 256 255 255 255 255 254 254 255 257 258 259 261 261 262 263 264 264 264 264 264 265 265 265 265 266 266 269 268 269 270 273 278 285 286 287 288 290 291 291 291 292 292 292 292 293 293 293 291 292
251 256 257 256 254 250 248 248 249 247 247 247 246 247 248 247 246 246 246 246 246 247 248 248 248 249 250 252 254 259 255 252 252 252 253 254 255 255 254 254 254 254 254 255 257 258 259 260 261 262 263 264 264 264 264 264 265 265 265 265 265 265 266 266 266 267 269 271 274 283 287 289 290 291 292 291 292 292 292 292 292 293 293 292 293
251 254 256 257 254 252 249 248 247 246 246 246 245 246 245 246 245 245 245 245 246 247 247 247 247 248 249 251 257 257 251 250 251 252 252 253 253 254 254 254 254 253 253 254 256 257 258 260 261 261 262 263 264 264 264 265 265 265 265 265 265 265 265 265 265 266 266 268 270 274 284 289 290 290 291 292 292 292 292 292 292 292 293 293 293
252 253 254 255 253 250 248 247 245 245 244 245 245 243 243 246 245 245 244 244 246 246 246 246 247 247 249 256 263 260 251 249 250 251 251 252 252 253 254 254 254 253 254 255 256 257 258 259 260 261 262 263 264 264 264 265 265 265 265 265 265 265 265 265 265 265 266 266 268 270 275 284 289 290 290 291 290 291 292 292 292 292 292 293 293
250 250 250 249 249 247 246 245 245 246 244 245 244 244 245 245 244 243 245 245 245 246 246 246 246 247 251 259 260 260 251 249 250 250 251 251 252 252 253 253 254 254 254 255 256 256 257 259 260 261 262 263 264 264 264 264 265 265 265 265 265 265 265 264 265 265 265 265 266 268 271 276 284 290 290 289 291 292 291 292 293 292 292 292 292
248 248 247 247 246 246 245 244 243 242 243 243 243 246 246 244 243 243 243 244 245 246 246 245 246 247 248 254 255 256 249 248 249 249 250 250 251 251 252 252 253 254 255 255 256 256 257 259 260 261 262 263 264 264 264 264 265 265 265 265 265 265 264 264 264 264 264 265 265 267 269 273 279 287 290 290 291 291 291 291 291 292 292 292 291
248 247 247 246 245 244 244 242 243 243 242 245 245 245 245 243 242 241 242 242 243 243 244 245 245 246 246 247 248 248 247 248 248 249 249 250 250 250 251 252 252 253 254 255 256 257 258 259 260 261 262 263 264 265 265 265 266 265 265 265 265 265 265 264 264 264 264 264 265 267 268 271 277 283 288 290 290 290 291 290 291 291 292 292 292
247 246 246 244 243 243 242 242 242 241 244 243 240 240 243 241 241 241 242 242 243 243 244 244 245 245 245 245 246 246 246 247 248 248 249 249 249 250 250 251 251 252 253 254 256 256 258 259 260 261 261 262 264 265 265 266 266 266 266 266 265 265 265 265 265 265 265 265 265 266 268 270 274 280 287 290 290 290 290 290 291 289 290 291 291
246 246 245 245 244 243 241 239 242 240 240 240 239 238 239 239 239 240 242 243 243 244 244 244 243 244 245 244 245 246 246 246 247 248 248 248 249 249 250 250 251 251 252 254 255 256 257 259 260 260 261 262 263 265 266 266 266 266 267 267 267 266 266 266 266 265 265 265 266 266 268 270 273 279 285 289 290 291 291 290 291 291 291 290 291
245 245 245 244 244 243 242 242 239 239 238 240 241 240 240 240 240 242 243 244 244 244 244 243 243 243 243 244 244 245 246 246 246 247 247 248 248 249 249 249 250 251 252 254 255 255 257 259 260 261 261 262 263 265 265 266 266 266 267 267 268 267 267 267 266 266 265 266 266 267 268 269 272 279 285 288 289 289 290 290 290 290 290 291 291
245 244 244 243 242 242 241 240 241 244 239 240 240 241 241 241 240 241 240 241 242 242 243 243 242 242 243 244 244 245 245 246 246 247 247 247 248 248 248 249 250 251 252 253 255 255 256 258 260 261 261 262 263 265 266 266 266 266 267 268 268 268 267 267 266 266 266 266 266 267 267 268 271 274 279 287 288 289 289 289 290 290 290 290 290
244 244 243 243 242 242 241 240 241 238 238 239 240 239 240 240 240 239 240 241 242 242 242 242 243 243 243 243 244 245 245 246 246 246 247 247 247 248 248 249 249 250 251 253 254 254 256 258 259 260 261 262 263 264 266 266 266 266 267 268 268 269 268 267 266 266 266 266 266 266 267 267 269 270 271 274 282 287 288 288 289 289 290 290 289
244 244 243 243 242 240 240 239 238 236 238 239 238 238 240 240 239 240 242 244 245 244 245 244 243 242 242 243 244 244 244 245 245 246 246 247 247 247 248 248 249 250 251 252 253 254 256 257 259 260 261 262 263 263 266 266 266 266 267 268 269 268 268 267 266 266 266 265 265 266 266 266 267 268 269 270 271 277 285 286 287 287 288 287 288
245 244 244 243 241 241 240 238 237 236 236 238 237 237 239 238 239 242 243 244 244 243 242 243 242 242 242 242 243 244 244 244 245 246 246 246 246 247 247 247 248 249 250 251 252 254 255 257 259 260 261 261 262 263 266 266 267 267 267 268 269 268 268 267 267 266 266 266 265 265 265 266 265 265 266 267 269 270 271 277 284 286 286 287 287
Wind_Speed
5 4 3 3 3 3 3 3 4 4 5 6 7 7 7 8 8 9 10 11 11 12 12 13 13 13 14 14 14 14 15 15 13 14 14 15 14 16 17 18 18 19 15 19 17 17 17 19 19 20 18 20 17 17 17 20 20 18 16 16 16 17 16 18 18 18 13 10 11 11 9 9 13 11 14 13 13 14 15 19 20 18 17 17 18
5 4 3 3 3 3 3 2 3 4 6 6 6 6 7 8 9 10 11 11 11 12 13 12 12 13 14 14 14 15 15 15 15 13 15 15 16 13 14 16 17 18 17 18 17 15 16 18 19 18 18 20 19 18 15 14 15 15 15 14 15 16 16 17 17 15 20 8 13 9 9 8 13 10 10 13 14 13 16 17 17 17 17 16 16
4 4 3 3 3 3 2 2 3 5 6 5 6 7 8 9 9 10 11 11 11 10 12 12 13 13 14 14 15 15 15 15 14 14 15 16 17 16 15 16 17 17 18 19 18 16 18 17 18 17 16 18 19 18 17 18 16 18 19 15 14 16 16 18 18 17 18 15 12 13 9 9 10 11 9 11 13 13 16 18 15 14 15 17 16
4 4 3 3 3 3 3 3 4 5 5 4 6 7 8 9 9 10 11 10 11 11 11 13 13 13 14 14 14 15 15 15 15 15 15 16 17 18 17 17 17 18 18 19 18 16 17 17 17 17 17 19 19 17 17 17 16 15 17 18 17 19 18 18 18 14 12 15 10 10 7 9 10 9 9 9 12 13 13 16 16 15 15 16 17
4 4 3 3 3 3 3 3 4 4 4 5 7 7 8 8 8 9 10 10 11 11 11 11 12 12 12 14 15 15 15 15 16 16 15 15 17 18 18 17 17 18 18 18 18 18 18 17 17 17 17 19 18 17 16 20 17 18 17 14 13 15 14 16 15 11 12 15 12 8 9 9 9 10 8 10 12 12 12 14 15 12 17 16 15
5 4 3 3 3 3 3 3 3 4 5 5 6 7 8 8 9 8 9 11 11 11 12 11 11 13 13 14 15 16 15 15 16 17 17 17 17 17 17 17 17 17 18 18 18 17 17 17 17 17 18 18 17 17 17 19 18 17 18 16 14 13 15 16 14 11 12 13 12 10 9 10 9 9 7 7 10 13 13 13 15 12 14 17 16
5 4 4 3 3 2 3 3 3 4 4 5 6 7 7 8 8 9 8 9 11 12 11 12 12 12 15 15 16 17 18 16 17 17 17 17 18 18 17 17 17 16 17 18 17 17 17 17 17 17 17 18 19 19 18 19 17 19 18 17 15 15 16 17 14 11 10 12 11 10 9 9 9 11 5 7 10 12 13 13 14 9 9 17 17
5 4 4 3 3 3 2 2 3 4 4 5 6 7 7 7 8 8 8 9 10 11 12 13 13 14 15 16 15 15 17 18 17 17 18 17 17 17 17 17 18 18 19 18 18 18 18 18 18 18 19 19 18 19 18 18 16 18 17 15 15 15 15 16 14 11 10 11 12 11 10 10 9 9 7 6 9 11 11 11 15 10 10 10 17
5 4 4 3 3 2 2 2 2 3 4 5 6 7 7 7 8 8 8 9 9 10 12 13 16 15 14 15 16 16 16 15 14 14 16 18 17 18 18 19 18 18 19 19 18 18 18 18 18 19 19 25 29 26 25 22 17 17 17 15 15 13 13 14 15 10 8 8 8 6 7 6 8 7 7 7 10 13 9 8 15 12 11 13 11
5 4 4 3 2 2 2 2 2 4 5 6 6 7 7 7 7 8 8 9 9 10 12 13 13 14 15 16 15 14 14 13 16 26 25 19 20 18 18 18 18 18 16 18 17 18 18 19 17 26 29 29 29 30 30 30 31 24 19 17 16 17 15 14 13 9 7 8 9 9 10 9 8 6 7 9 10 10 11 11 16 12 13 14 13
5 4 3 3 1 1 1 2 4 5 5 5 6 6 7 7 7 8 8 8 9 10 11 13 13 14 15 14 15 14 13 14 26 27 28 30 23 19 18 18 18 19 19 17 19 17 17 17 17 21 24 27 26 31 29 30 29 30 31 31 27 20 16 17 16 9 8 8 9 9 9 9 8 7 9 9 8 10 12 12 14 13 14 16 14
5 4 3 2 1 1 2 3 4 4 5 6 6 6 6 7 7 7 7 9 9 9 11 12 13 13 13 15 16 15 16 21 27 28 29 29 27 21 18 17 17 16 18 16 18 16 19 18 18 16 15 16 18 18 23 28 28 29 29 29 30 33 31 21 17 14 11 8 8 10 10 9 8 7 8 8 9 10 12 12 14 14 14 16 15
5 4 3 2 1 2 3 3 4 4 5 6 6 6 6 6 6 7 8 8 9 11 11 12 12 13 14 16 16 16 17 23 28 30 29 29 30 26 18 17 16 17 17 18 18 18 18 18 19 16 18 24 24 19 21 20 26 31 30 31 32 32 31 32 31 21 14 13 12 13 11 8 9 9 6 8 10 13 11 12 13 15 15 16 14
5 4 3 2 3 3 3 3 4 5 5 6 6 6 6 6 6 6 7 8 10 10 11 13 13 13 14 15 16 15 16 22 29 30 30 30 29 26 19 18 17 17 18 18 17 19 18 20 17 18 17 18 16 20 18 17 18 17 17 17 18 23 27 30 31 31 24 16 14 13 13 8 11 8 6 6 7 10 12 13 12 15 16 19 18
5 4 3 3 3 2 2 3 4 5 6 6 6 6 5 6 6 7 8 9 10 10 11 12 12 12 12 13 13 14 14 27 30 31 30 30 30 27 17 16 15 15 16 17 18 17 20 19 19 18 20 18 16 18 18 16 15 16 16 18 16 15 17 17 17 16 16 16 16 15 14 12 11 9 9 9 10 9 10 15 18 16 16 12 17
5 4 4 3 3 2 1 2 4 5 6 6 5 5 5 6 7 7 8 8 9 9 11 11 12 12 13 13 14 15 15 27 30 30 31 30 31 18 15 15 15 15 15 16 17 16 16 17 18 17 18 18 21 28 26 18 15 16 16 17 17 18 13 11 14 15 15 14 12 12 12 13 12 10 10 11 11 10 11 14 17 18 15 13 15
5 5 4 3 3 2 1 3 5 6 5 6 5 5 6 7 7 7 8 9 11 10 11 11 11 12 13 12 14 15 14 22 29 30 30 31 26 16 16 14 14 15 16 16 16 16 16 18 18 18 19 19 23 27 27 26 16 17 16 16 16 14 13 11 16 20 21 22 22 19 21 21 19 20 21 24 17 13 8 11 15 15 14 15 15
6 5 4 3 3 1 1 3 5 6 5 4 5 5 5 6 7 7 8 10 11 11 11 11 10 10 13 15 13 15 14 21 30 31 30 30 25 16 14 13 13 15 16 16 15 15 17 27 24 20 19 19 24 28 29 24 17 16 16 16 17 16 14 12 10 11 19 22 21 21 23 22 23 25 26 26 25 18 9 15 15 13 15 16 15
5 5 4 4 3 1 2 4 5 6 5 4 3 5 6 7 7 7 7 9 11 11 11 11 11 10 12 14 21 22 16 18 26 29 30 28 23 15 14 13 16 15 16 17 15 15 16 19 27 25 22 22 29 28 29 24 16 16 14 15 17 17 15 13 12 12 11 11 11 12 14 17 16 14 15 22 22 19 15 15 13 14 17 16 21
6 6 5 4 2 2 4 5 5 5 5 4 3 3 5 6 7 8 7 7 10 11 10 10 13 13 13 13 13 13 14 14 18 28 27 28 29 19 13 14 15 16 17 16 16 15 16 16 21 25 27 28 28 28 26 28 19 15 14 15 16 17 12 12 12 10 11 12 11 10 12 11 11 11 11 11 13 14 17 15 16 16 18 14 19
6 5 4 3 3 3 4 5 6 6 4 3 3 4 4 6 7 7 7 8 8 10 11 12 12 12 11 13 12 13 14 15 16 27 28 28 29 26 14 15 15 15 14 15 14 15 14 15 15 21 26 26 26 26 26 25 24 16 15 15 15 14 12 10 12 15 13 12 10 9 10 10 11 11 11 12 12 13 14 15 17 19 19 14 17
6 5 4 3 3 4 5 5 5 4 3 1 3 4 4 4 5 6 7 8 10 12 12 10 11 12 12 12 12 13 14 20 19 23 27 29 29 32 19 15 17 16 17 14 16 16 17 16 16 20 26 26 26 27 28 27 26 16 16 23 25 26 19 14 11 10 11 11 11 10 10 10 11 10 10 12 13 14 15 15 17 19 18 15 19
6 5 4 4 4 5 5 5 4 3 1 1 3 4 4 5 6 6 7 8 9 11 13 12 13 11 12 12 11 11 13 14 23 20 26 29 30 29 30 24 28 19 15 15 16 17 16 17 19 27 27 28 28 27 25 28 24 17 24 26 26 28 24 15 13 13 13 13 12 12 11 11 11 12 11 12 13 15 16 16 17 17 17 16 19
6 5 4 4 5 5 5 4 3 0 1 3 2 4 5 5 5 5 6 7 8 9 9 11 10 11 14 14 12 13 14 14 17 25 25 30 29 30 29 30 28 18 17 15 16 16 17 17 19 29 30 30 29 28 26 26 19 24 24 25 25 23 15 14 13 14 13 14 13 13 13 12 11 12 12 12 13 15 17 17 17 18 17 16 20
5 5 5 5 4 5 4 2 1 2 3 3 4 4 5 4 5 5 5 7 8 8 9 10 9 13 14 14 15 16 14 11 14 21 30 29 30 30 29 29 27 27 18 13 15 16 22 31 33 32 31 31 31 28 26 26 28 27 26 25 23 13 13 13 14 13 14 14 14 13 12 12 12 13 12 11 14 16 16 14 15 15 15 12 10
5 6 5 4 5 5 5 2 2 5 5 3 1 2 3 4 4 6 5 6 7 8 10 8 10 13 13 14 15 14 13 16 16 14 17 24 25 28 30 27 26 27 25 17 25 31 31 32 34 34 30 26 19 15 13 14 20 23 24 22 14 13 13 13 14 14 15 14 12 12 12 11 11 10 10 12 15 16 14 13 12 10 6 7 7
6 5 5 4 3 3 3 2 2 4 4 3 2 2 2 2 4 5 6 7 8 9 8 10 11 12 13 13 14 15 16 16 15 18 15 18 18 19 19 17 23 23 16 14 18 17 21 22 19 23 21 25 25 24 23 22 18 16 13 12 12 14 13 12 12 13 12 11 11 11 10 10 8 8 10 13 15 15 13 12 11 12 13 12 12
7 7 6 4 2 1 3 4 5 4 4 4 4 5 2 2 4 5 5 6 7 7 8 9 11 11 11 12 14 13 11 15 16 13 16 17 18 17 16 15 15 14 14 15 15 17 17 18 19 12 11 11 12 10 10 11 13 13 13 11 11 11 13 15 14 12 11 10 10 9 8 8 9 10 12 14 14 12 11 13 14 14 14 13 13
6 6 5 3 2 1 3 3 4 5 3 2 1 3 6 5 5 7 8 7 7 8 8 10 10 10 10 11 13 12 12 14 12 23 23 27 24 20 16 15 14 13 18 26 18 15 13 12 12 12 11 11 10 10 10 10 10 11 12 9 9 10 10 10 12 13 12 10 8 7 9 9 11 11 12 13 13 12 12 13 13 14 13 14 15
7 6 4 3 3 3 4 4 6 6 5 5 4 3 6 10 7 6 6 13 16 17 15 10 12 11 9 10 11 14 16 17 29 32 32 31 32 31 28 28 26 21 23 28 19 11 11 11 10 11 11 11 11 10 11 11 12 13 10 10 10 9 10 10 10 10 10 10 11 10 10 11 11 12 12 13 11 11 13 14 13 14 16 16 16
6 5 5 4 4 4 3 4 5 5 4 3 4 7 8 2 5 6 11 14 17 18 17 19 20 19 15 11 12 22 25 27 29 30 31 31 31 31 29 29 28 27 25 19 12 10 13 12 12 11 11 11 10 11 11 11 12 12 13 12 8 10 9 10 10 9 10 10 11 11 11 11 11 12 12 12 12 11 11 11 12 14 16 17 16
9 6 6 4 5 4 3 5 5 4 2 3 4 4 5 11 12 7 8 12 17 16 17 19 20 19 20 19 16 13 21 27 29 30 30 31 31 30 29 30 28 29 25 22 10 12 10 10 11 12 12 12 11 12 11 11 12 12 12 12 12 9 8 9 10 10 10 11 11 11 11 10 11 12 11 11 10 12 13 12 12 14 14 16 16
9 8 7 6 5 5 4 4 4 3 2 2 2 2 4 4 5 13 17 20 19 13 14 18 20 21 21 21 22 22 23 25 28 29 30 30 30 29 27 27 26 29 24 14 12 11 10 9 10 11 12 11 12 12 11 11 11 11 10 11 11 11 12 10 10 10 11 11 11 10 10 9 10 10 10 9 10 12 13 14 14 14 14 14 15
12 9 8 7 6 4 4 5 4 2 0 1 1 2 2 3 3 3 6 12 15 17 17 19 20 21 19 22 22 24 26 26 27 28 29 30 30 29 27 18 23 28 24 13 12 12 11 10 11 10 11 11 11 11 11 10 10 10 11 10 11 11 12 13 10 8 8 9 8 9 8 8 9 10 10 9 11 11 13 14 15 14 14 15 16
6 7 9 6 6 6 5 5 4 1 0 1 1 2 2 3 2 2 3 4 6 8 10 12 15 19 16 16 21 24 26 26 26 27 29 29 29 29 24 15 19 18 17 14 13 12 12 12 12 12 11 12 12 12 12 12 11 12 12 12 12 12 12 11 11 9 7 7 7 8 8 8 9 9 10 10 11 12 13 13 14 15 14 14 16
7 6 5 6 5 5 6 5 3 2 1 1 1 2 3 2 4 3 4 4 5 7 8 9 9 12 18 18 22 23 26 26 25 25 26 27 28 27 15 15 14 14 13 13 13 13 11 12 11 12 11 10 12 12 12 12 12 11 11 12 13 12 12 12 12 12 12 8 8 8 7 7 9 8 9 9 12 14 14 14 13 14 15 15 15
7 5 5 5 4 5 6 6 4 0 1 1 1 2 2 2 3 2 4 4 5 5 6 8 9 11 12 11 18 20 25 23 23 23 24 25 25 13 9 9 9 11 12 13 13 13 13 12 13 11 11 11 11 11 12 12 12 12 13 12 12 12 11 12 13 13 13 11 8 7 7 6 8 9 8 10 10 11 13 14 15 15 14 17 17
8 7 8 6 6 6 7 6 2 4 2 1 1 1 3 2 2 3 5 4 5 6 7 7 7 6 10 12 17 10 14 17 20 17 17 17 14 12 10 10 10 10 12 12 12 13 13 13 12 12 12 12 11 12 12 12 13 13 13 13 12 12 18 15 14 12 12 13 9 6 5 5 6 9 8 9 12 11 11 12 13 14 14 17 16
7 12 13 14 9 9 8 6 4 1 0 1 1 2 3 2 2 3 3 3 4 5 6 6 6 6 9 10 8 9 13 10 11 12 12 12 11 11 11 10 10 11 12 11 13 13 12 13 13 13 12 11 12 11 11 11 12 13 13 12 13 13 14 12 13 12 12 11 13 9 5 5 6 7 10 8 10 12 12 12 12 14 14 14 15
8 6 9 13 8 8 7 6 3 1 1 0 1 1 1 2 2 4 4 4 5 5 5 6 7 7 9 10 8 8 10 8 8 9 9 11 12 12 12 11 11 11 11 11 12 12 13 13 13 12 13 13 13 12 11 11 10 11 12 12 13 13 13 12 12 12 11 12 11 12 9 6 7 6 8 10 8 10 12 12 11 12 14 15 16
6 7 5 8 10 8 7 6 3 1 1 1 0 1 1 2 3 4 3 4 4 4 5 6 6 7 8 12 20 16 5 6 7 8 9 11 11 12 13 13 12 11 11 11 12 13 12 12 13 13 12 11 13 12 12 11 11 11 12 13 12 12 13 12 12 11 12 11 11 11 11 10 6 7 8 9 9 7 8 11 12 11 12 13 15
8 7 8 7 8 7 7 5 4 2 1 0 0 0 2 3 2 3 4 4 5 6 5 6 6 6 11 21 19 19 9 5 6 8 8 10 11 11 12 12 12 11 10 11 11 12 13 12 12 12 13 13 14 14 13 13 12 11 12 12 12 13 13 13 13 13 12 11 11 11 11 11 10 7 8 7 8 8 7 9 11 11 11 11 10
8 8 9 8 7 7 6 4 3 2 1 0 1 1 2 1 1 3 3 4 4 5 5 6 7 7 8 15 16 16 6 7 6 7 8 9 9 9 10 11 12 13 12 10 9 10 11 11 12 12 12 13 14 13 14 13 13 12 11 11 12 12 13 13 13 13 12 11 12 12 12 11 10 7 7 6 6 7 8 9 10 11 12 11 10
8 7 7 7 8 6 5 4 3 2 1 1 1 1 1 1 2 2 3 3 4 4 5 5 5 7 7 10 10 8 7 8 8 8 8 8 8 10 10 11 11 11 13 13 12 11 10 11 11 11 12 12 13 15 13 13 13 13 13 14 12 13 12 13 12 13 12 12 12 12 11 11 10 8 6 7 7 7 8 9 9 10 12 12 11
8 8 8 8 6 7 4 3 3 2 2 2 0 1 2 1 2 3 3 4 5 4 5 4 5 5 7 7 8 8 8 8 7 8 8 8 9 10 10 11 11 12 11 11 13 14 13 11 11 12 14 12 13 15 14 14 14 13 12 13 13 13 14 14 13 13 12 11 11 11 11 10 10 9 6 6 8 8 8 10 10 10 10 11 12
8 8 8 8 7 7 6 4 4 2 1 1 0 0 1 2 2 3 4 4 4 5 4 4 4 4 6 6 6 7 7 7 8 7 8 8 9 9 10 10 11 12 10 10 12 13 13 11 11 11 13 13 16 15 15 15 15 14 14 13 13 12 13 13 13 12 11 11 10 10 11 11 10 9 8 6 7 8 9 9 10 11 11 12 13
8 8 7 7 7 7 6 6 4 3 2 1 0 0 1 2 2 3 4 5 4 5 5 4 4 5 5 5 6 7 7 7 7 8 8 8 8 9 9 10 11 11 12 12 12 12 13 13 12 12 14 14 14 16 16 16 15 15 14 14 14 15 15 15 13 12 11 11 11 10 10 10 10 9 7 7 6 8 8 9 10 11 11 11 12
8 7 7 7 6 7 5 5 4 4 3 1 0 1 1 2 2 3 4 4 4 5 4 4 4 5 6 5 5 5 6 6 6 7 7 8 8 8 10 10 11 11 11 12 12 12 13 13 14 15 14 13 13 14 17 16 16 16 16 15 16 20 23 23 14 15 13 11 10 10 11 10 9 7 7 4 7 6 8 8 9 10 11 11 10
8 8 7 6 6 6 7 6 6 4 3 1 0 0 1 1 2 3 4 4 4 4 4 5 5 4 4 5 5 6 6 7 7 7 7 8 8 9 9 10 11 11 11 11 13 12 13 14 14 14 14 13 14 14 16 17 18 18 18 16 24 37 35 33 20 19 21 12 10 10 10 10 9 9 8 9 5 3 6 6 8 9 11 11 12
6 7 7 7 6 5 5 4 3 3 3 1 1 0 0 1 2 3 4 3 2 3 3 5 4 4 5 6 7 6 6 6 7 8 8 8 8 8 9 10 11 11 11 11 12 11 11 13 14 14 14 15 14 14 14 16 17 19 18 22 35 36 35 34 30 34 24 13 13 10 10 11 10 10 11 9 9 7 1 7 7 7 8 9 9
6 5 5 6 6 5 5 5 5 4 2 2 1 1 1 1 1 2 2 2 2 5 4 4 4 5 4 4 5 5 6 6 6 6 6 7 8 9 9 10 11 11 11 12 12 11 11 13 11 13 14 13 12 12 12 16 17 21 28 37 37 36 37 34 24 29 34 23 13 12 11 14 13 13 11 11 10 10 10 7 4 7 8 8 10
Wind_Direction
173 183 187 203 228 245 261 274 291 295 286 281 286 290 293 292 291 292 297 292 294 292 292 294 296 296 297 297 297 297 296 294 293 288 285 281 281 281 283 280 277 273 271 272 268 266 267 266 265 265 268 268 266 270 265 263 262 259 254 253 259 264 263 253 251 259 258 248 265 266 273 279 282 275 283 287 293 290 281 251 219 205 202 204 201
169 173 183 192 218 241 244 259 272 275 274 280 288 292 292 294 297 298 293 292 292 294 296 298 299 300 300 299 298 296 294 291 292 291 290 288 285 282 282 282 277 277 275 271 271 269 268 267 267 267 266 267 266 266 270 277 275 268 257 253 260 264 264 259 250 254 264 249 265 262 273 264 275 278 281 292 292 295 290 283 235 201 199 199 196
160 165 176 193 227 233 244 264 271 268 275 288 291 297 300 300 300 297 295 297 298 299 303 305 305 303 301 300 299 298 297 295 294 291 289 288 287 284 281 281 279 276 276 273 273 272 270 268 268 270 270 268 267 269 271 275 276 275 278 277 271 267 267 260 254 252 258 262 259 270 267 269 264 286 285 283 287 291 289 286 256 206 196 195 193
156 161 177 204 222 238 255 269 266 269 286 291 296 301 302 300 298 297 300 303 307 308 308 306 304 302 301 300 298 297 296 294 294 290 289 287 284 282 283 281 278 276 276 276 275 273 270 270 268 268 269 269 270 271 272 269 270 266 264 266 266 267 263 261 249 249 256 269 249 260 267 274 277 281 287 286 289 287 279 284 268 212 184 183 183
153 169 185 203 225 235 252 258 260 276 288 298 301 301 300 301 302 304 309 310 312 312 307 305 302 303 300 300 298 296 295 293 293 291 288 285 282 284 283 282 279 276 275 275 274 272 272 271 273 272 270 270 272 272 272 274 275 280 275 267 268 275 278 263 250 246 253 260 264 257 268 266 272 283 284 292 290 285 285 278 268 226 173 170 161
161 173 186 205 221 230 247 252 267 287 299 303 303 304 304 305 309 311 314 312 313 307 304 303 303 301 299 298 297 294 294 292 291 291 288 286 285 283 283 281 279 277 277 275 273 271 270 269 269 269 268 267 270 272 273 275 277 270 271 273 272 272 274 269 253 246 250 258 264 266 259 264 276 263 270 274 280 286 288 285 267 236 178 159 155
167 169 191 206 218 227 241 258 285 297 306 308 310 310 310 311 312 312 315 313 309 304 303 303 301 300 299 298 299 299 297 293 295 291 287 286 286 284 281 281 278 277 274 272 270 269 267 267 266 264 264 265 267 268 272 274 271 271 269 273 280 283 284 283 264 249 252 263 266 263 263 258 257 271 257 258 263 264 275 287 270 231 202 159 155
165 177 186 203 213 230 244 276 295 309 313 318 315 313 311 310 312 312 314 309 303 301 304 305 300 301 299 299 295 293 294 295 293 292 291 286 285 281 278 276 273 269 266 263 263 261 258 258 257 257 260 261 261 261 264 265 266 268 269 269 269 267 267 273 273 252 250 257 264 267 262 264 254 253 262 254 263 259 249 257 265 231 192 175 160
169 176 188 196 213 220 263 286 314 322 329 324 316 313 312 311 311 310 306 301 298 299 299 297 300 297 290 289 292 296 297 293 291 288 293 287 283 280 277 272 266 265 265 261 255 254 256 253 252 255 250 261 260 263 261 261 263 267 268 270 268 255 252 253 263 258 245 250 261 272 284 279 266 259 239 231 237 252 256 251 261 232 191 164 175
166 179 184 196 207 237 275 311 338 348 334 322 314 313 311 309 307 306 301 299 300 298 292 293 289 290 292 301 302 299 297 294 290 290 291 292 292 289 286 281 279 276 270 270 261 256 252 254 247 251 257 264 265 264 264 264 262 261 263 264 267 277 281 282 267 246 246 248 254 261 263 261 269 265 255 244 244 255 255 251 259 240 194 170 161
173 170 187 184 206 261 329 0 1 344 328 314 309 308 309 306 302 298 299 302 298 292 294 294 293 299 302 303 305 302 297 295 293 295 296 296 296 294 292 289 283 280 272 270 271 270 262 255 251 251 254 260 262 263 262 263 264 265 265 261 258 257 265 263 269 269 239 236 246 248 248 258 261 268 273 273 251 246 249 249 251 236 201 170 167
165 175 176 174 207 26 16 11 354 331 317 306 305 304 299 298 297 301 304 303 296 293 293 296 304 306 305 305 302 301 298 294 297 299 299 299 297 294 291 288 287 282 281 273 274 267 270 264 265 262 251 256 251 255 254 262 266 266 268 267 264 259 251 250 256 263 258 250 245 245 248 247 256 256 269 283 278 258 246 250 252 239 203 176 161
165 167 161 166 118 56 31 7 344 316 306 301 297 294 292 292 301 309 304 296 296 300 302 304 305 306 304 304 301 300 297 295 300 301 301 300 299 298 294 289 285 283 283 280 276 269 271 266 267 259 258 254 260 257 261 260 265 262 268 272 269 258 254 253 251 251 258 256 250 251 244 246 253 251 247 268 292 293 264 244 248 238 212 177 168
158 159 150 131 84 54 29 14 321 303 297 294 292 293 289 300 308 300 296 301 302 299 302 304 304 303 301 298 297 294 291 293 298 302 304 304 303 301 296 293 289 288 287 284 282 276 268 267 259 264 258 258 253 254 256 252 259 258 266 263 259 260 256 249 249 248 243 245 245 246 247 228 244 252 258 272 285 282 292 278 248 240 217 185 168
152 151 135 107 85 55 31 341 304 294 292 288 286 284 299 310 310 307 310 309 308 306 307 305 301 295 292 292 291 289 287 295 302 304 307 307 305 305 300 300 297 292 288 284 283 279 271 266 259 262 264 259 257 248 254 248 249 253 258 263 269 257 243 241 241 240 239 239 239 241 246 241 242 252 263 264 257 263 267 279 281 254 220 192 161
146 142 124 107 94 64 40 313 292 285 287 285 281 306 320 319 314 310 308 303 298 299 300 297 295 294 291 290 289 287 286 296 302 304 308 311 310 310 306 298 291 287 285 286 285 285 287 283 277 269 263 259 254 255 257 252 249 250 254 258 258 261 259 251 241 232 232 234 231 233 240 242 243 244 251 256 263 269 282 288 285 263 220 187 165
145 135 120 116 102 97 332 285 280 279 280 282 302 321 327 319 313 312 308 306 305 303 299 296 292 291 290 288 287 288 286 293 300 308 312 312 313 307 299 290 289 291 290 292 293 291 285 281 279 276 272 266 259 258 259 257 253 251 250 253 259 258 257 257 261 257 247 241 241 238 243 248 248 246 252 256 259 261 280 285 275 276 226 182 172
142 131 126 126 118 138 241 267 269 273 272 285 312 319 313 308 304 313 309 308 304 300 299 293 285 283 289 290 285 286 288 295 302 308 314 314 314 309 304 302 295 297 296 293 290 284 280 280 279 277 273 269 266 260 261 260 257 252 250 253 257 260 258 258 256 250 253 254 251 246 247 250 253 256 256 258 259 257 242 257 267 274 249 187 169
140 135 131 130 127 174 237 249 257 264 278 285 304 307 312 310 304 306 300 298 296 297 296 292 290 285 285 285 290 294 287 293 300 309 316 317 319 314 309 301 300 298 296 294 284 283 281 280 278 275 272 268 269 266 259 257 252 248 247 248 251 251 249 248 246 246 247 248 244 242 245 249 252 250 250 251 252 252 245 246 260 253 250 202 164
135 126 126 128 144 208 238 240 244 252 269 280 284 291 301 304 308 309 301 296 296 297 286 290 296 299 298 292 293 287 291 293 304 317 323 321 320 318 310 303 298 294 293 283 282 274 271 271 277 273 272 272 273 276 272 259 249 242 240 242 244 247 244 242 240 239 247 241 241 232 236 239 242 240 245 251 256 254 254 245 241 242 247 212 174
126 126 125 140 174 217 242 234 240 251 248 267 295 304 307 311 309 304 302 299 295 295 292 299 300 303 304 306 303 301 296 304 315 327 325 324 322 322 310 306 299 295 294 290 284 282 278 279 279 277 276 277 277 278 277 270 260 249 239 240 242 252 252 244 242 234 240 242 239 239 241 241 243 244 246 253 252 257 254 243 234 234 239 215 178
124 127 143 156 192 220 226 242 246 239 250 279 319 315 308 305 298 298 298 297 296 298 302 305 310 302 302 306 302 303 309 323 326 322 323 323 324 322 318 306 309 310 308 302 300 297 291 288 284 280 280 279 280 281 281 282 272 257 248 247 249 249 248 245 244 238 235 238 238 236 237 239 244 243 246 250 253 254 253 242 230 228 234 221 190
126 138 150 174 201 213 231 229 239 231 235 8 334 312 314 315 309 302 296 296 291 300 311 304 303 296 313 319 315 315 319 320 323 325 329 329 326 324 321 318 314 314 309 303 300 296 293 288 284 283 280 278 277 276 276 277 279 267 256 251 248 246 245 241 236 236 241 243 240 239 235 238 240 244 244 250 252 250 247 231 224 222 225 225 203
131 146 166 187 194 220 223 226 230 222 67 32 349 323 320 310 304 300 299 298 294 295 293 303 300 312 325 323 325 327 323 319 330 336 333 327 326 326 323 320 319 319 313 304 302 295 292 287 281 281 279 276 275 275 275 274 271 272 268 258 254 250 242 239 237 241 243 243 238 233 233 231 237 241 242 244 251 249 238 220 216 216 218 220 204
140 157 169 182 204 213 220 214 196 87 57 43 1 330 319 318 310 306 300 298 298 297 300 300 307 326 323 326 328 325 323 328 332 328 326 328 332 330 326 325 325 323 315 304 302 298 292 290 285 282 279 277 277 277 277 274 269 268 266 264 254 241 241 236 240 240 238 238 235 233 232 233 234 239 245 252 257 251 230 213 209 210 214 220 210
156 170 182 194 209 205 190 167 87 57 50 37 347 289 285 298 293 297 292 297 301 296 299 300 324 328 325 324 327 324 325 332 327 323 328 333 333 331 330 329 328 323 318 312 310 304 298 291 285 281 279 277 277 272 264 264 265 264 262 259 247 237 234 236 236 236 237 237 233 233 237 239 240 246 255 256 254 242 219 202 197 193 145 138 148
150 158 182 201 218 201 150 117 92 62 42 17 328 284 285 269 282 279 296 308 301 298 292 323 327 325 327 322 323 325 329 334 335 333 329 337 337 333 333 330 330 325 317 322 323 317 308 305 291 278 268 269 269 270 272 272 270 267 259 251 245 235 228 231 232 235 238 236 238 236 242 247 254 258 254 252 245 231 202 186 179 176 176 174 168
151 159 173 187 191 112 85 67 75 73 51 10 332 326 297 286 287 295 302 302 294 300 313 326 329 326 323 324 325 317 322 339 335 330 341 340 339 337 334 333 332 326 331 334 339 322 316 315 323 316 282 272 271 264 261 257 255 255 250 242 232 220 224 230 238 242 240 239 240 243 247 248 250 249 250 248 237 212 185 179 183 179 177 169 168
144 151 168 170 134 97 76 60 57 60 52 51 279 266 289 297 296 295 310 305 309 321 323 330 326 323 320 327 325 318 334 339 335 342 341 342 343 343 340 340 334 334 344 348 339 325 321 325 339 339 349 343 342 336 333 322 306 271 240 231 219 217 218 215 224 230 233 233 231 233 241 242 247 248 251 245 224 196 180 179 179 174 174 173 169
145 147 154 145 128 99 70 53 51 44 21 357 341 306 260 271 292 300 302 330 336 338 340 336 335 332 325 335 332 340 340 338 339 343 345 346 348 348 349 348 342 343 352 353 343 330 333 335 337 338 338 343 340 337 331 331 330 328 307 234 220 221 214 218 223 230 230 230 235 235 237 240 246 249 247 234 208 188 178 177 176 172 172 177 169
137 141 142 141 132 103 95 73 58 48 24 2 347 332 331 293 249 300 337 343 341 341 345 344 343 343 344 339 332 345 344 344 346 347 348 350 351 352 354 353 348 349 354 354 338 344 347 341 340 338 339 336 338 335 333 332 333 328 327 319 262 225 222 221 216 218 222 225 228 229 232 234 241 246 240 219 197 178 174 176 169 175 176 172 169
141 148 148 152 119 111 99 95 80 58 35 2 339 343 348 333 330 312 343 357 346 342 342 344 346 348 348 349 345 344 350 350 350 351 352 353 355 354 357 354 354 353 349 351 349 353 341 342 346 343 340 339 339 336 335 334 329 326 324 324 324 306 247 225 217 211 217 220 223 226 228 231 235 241 229 211 186 175 170 171 172 176 178 171 169
135 137 151 141 127 112 103 93 80 78 53 348 330 331 334 343 330 323 328 335 341 345 345 349 349 350 349 352 349 354 355 353 353 354 355 355 356 356 357 356 358 358 350 351 359 342 338 338 342 346 344 335 337 338 335 330 324 322 319 318 313 313 311 291 238 219 219 220 221 225 226 228 234 232 220 204 183 174 173 171 172 174 173 169 164
129 141 141 146 128 118 107 93 89 77 24 310 268 293 296 281 278 295 310 321 334 338 342 347 347 346 348 351 349 355 357 357 355 356 357 357 358 356 354 348 357 5 8 352 349 345 335 335 342 340 337 340 335 332 333 329 324 321 318 316 307 305 303 301 287 241 226 225 224 232 229 232 232 225 209 203 185 175 175 176 172 173 172 169 162
136 134 136 132 117 115 105 94 94 81 128 257 272 288 285 277 293 292 290 305 310 311 312 322 331 338 344 346 347 356 359 358 358 357 358 357 359 356 351 359 2 349 352 352 343 341 339 337 337 338 338 333 334 331 329 331 331 329 324 319 316 313 312 312 312 303 260 240 238 237 230 229 228 220 203 195 186 178 180 178 176 172 168 165 163
135 137 134 126 114 111 101 102 93 106 188 264 306 304 295 298 307 300 301 298 288 292 303 313 314 313 338 344 349 356 358 358 357 357 356 357 2 2 0 357 353 346 337 338 337 334 336 336 334 336 334 334 332 330 327 324 325 327 321 320 321 319 318 320 321 319 307 269 242 233 228 229 223 214 202 194 190 184 180 180 176 176 168 165 165
136 133 132 125 121 104 105 97 101 152 327 15 323 298 290 296 295 303 299 295 298 293 302 307 319 331 340 351 347 349 355 356 355 356 357 359 358 359 352 343 342 336 336 332 334 330 336 336 337 331 338 339 333 330 325 326 328 325 330 330 321 322 321 324 321 318 310 291 251 232 223 228 220 205 203 192 191 190 184 181 178 175 174 164 159
132 133 136 134 121 115 100 93 91 65 55 315 295 289 285 301 307 312 303 307 306 311 315 317 327 328 339 339 328 340 353 348 352 358 356 356 355 358 352 349 348 344 338 325 327 329 328 332 331 334 337 340 337 335 332 330 333 334 332 328 329 325 327 325 323 324 321 320 294 240 229 223 226 201 200 201 189 186 185 184 179 175 171 163 161
153 140 135 126 119 108 106 98 89 86 316 268 275 297 323 330 335 317 311 303 305 311 313 317 320 327 328 325 300 354 357 355 1 354 346 346 348 350 350 346 349 345 337 329 327 330 331 332 332 333 332 339 342 338 338 335 334 335 335 331 333 334 334 336 332 330 329 327 324 305 255 226 221 210 195 201 196 187 182 179 179 174 168 167 169
142 120 127 122 106 108 100 105 117 125 204 225 290 334 345 341 326 320 318 317 320 317 315 320 322 320 321 300 320 10 0 348 348 343 334 342 344 345 352 350 345 340 335 327 331 331 329 330 332 330 332 338 344 343 342 337 333 329 332 337 337 333 335 332 327 327 325 322 317 317 299 242 213 218 200 194 201 190 181 178 177 175 173 173 175
129 122 121 120 119 108 108 109 122 161 171 247 257 351 311 327 321 313 297 300 302 307 311 309 306 312 308 328 353 8 24 337 336 336 342 340 338 341 347 350 347 339 337 333 330 329 325 327 329 329 329 332 342 345 343 341 338 337 338 336 336 336 331 331 330 324 323 318 316 314 316 303 240 205 208 197 188 189 187 177 173 176 180 180 175
130 127 112 108 108 110 114 122 133 121 129 166 41 338 317 323 314 300 306 311 309 312 311 310 311 316 322 343 353 2 7 329 336 336 337 342 339 339 340 341 343 340 331 328 327 326 324 324 327 329 330 333 342 345 345 347 345 342 343 338 335 336 336 332 330 328 323 320 317 313 309 310 300 228 208 204 188 184 182 184 176 175 178 181 176
133 122 126 110 113 115 128 130 131 127 77 100 330 325 333 334 303 298 308 308 311 313 319 325 325 330 332 342 349 354 352 343 339 340 336 337 334 332 335 336 338 337 338 324 315 320 312 319 327 328 328 331 339 346 347 346 344 344 342 338 335 336 335 332 328 327 328 321 320 312 311 304 306 279 217 199 198 186 180 181 181 176 176 174 172
126 120 114 105 110 105 109 119 121 124 146 104 34 325 305 300 305 307 301 305 303 308 314 317 320 331 327 335 342 349 348 344 341 339 336 333 334 332 331 330 330 330 335 338 338 331 319 324 328 330 333 331 336 346 349 349 348 347 348 344 339 336 335 334 330 328 325 322 316 319 312 308 302 299 254 208 192 187 181 179 181 181 177 176 172
126 122 118 113 116 116 120 116 121 123 113 84 31 302 293 305 313 304 306 305 303 307 318 322 330 324 325 331 340 340 338 333 329 329 334 335 332 330 330 328 329 331 329 331 337 339 336 331 334 336 340 336 338 347 351 352 352 350 348 348 346 343 341 338 331 320 313 309 314 314 311 303 300 297 270 225 203 189 190 182 181 178 177 178 174
126 124 121 126 126 127 126 135 131 117 116 138 176 268 299 306 298 296 306 302 303 313 322 330 327 322 320 321 325 330 331 331 330 328 324 332 331 330 327 327 326 328 329 327 333 337 336 333 339 336 338 339 340 347 352 353 353 352 351 352 351 347 341 337 330 323 317 314 310 310 306 303 291 286 274 228 208 202 193 186 184 181 182 179 181
123 119 127 129 135 140 140 137 123 121 114 141 182 252 292 291 296 305 307 305 310 314 328 328 331 324 324 324 326 328 326 329 325 328 328 323 325 325 326 328 329 329 332 330 334 335 335 339 342 343 341 341 338 347 355 355 354 353 352 353 353 355 352 347 342 338 329 322 315 302 305 303 297 298 273 234 210 206 204 192 185 182 183 183 183
119 120 122 127 130 133 137 130 134 124 121 155 193 225 279 283 309 304 307 307 310 316 325 321 315 314 318 318 317 317 320 317 315 316 320 326 325 325 327 328 331 329 328 331 335 338 338 340 342 345 344 342 340 346 357 355 356 354 354 354 358 0 358 355 351 352 345 332 319 321 315 312 305 320 324 256 201 195 200 196 190 186 182 183 184
124 125 130 137 142 144 147 148 143 149 157 157 150 316 272 302 295 298 296 296 303 315 315 316 320 319 317 311 315 317 314 319 323 327 329 327 326 328 326 326 327 330 332 333 335 336 337 338 342 344 345 343 345 343 359 359 359 357 355 354 359 1 3 3 1 1 353 339 332 333 330 327 340 356 1 357 323 200 174 183 185 186 184 181 181
120 127 130 137 134 135 129 128 133 140 163 163 161 214 280 296 304 300 292 305 309 322 311 314 316 318 316 320 326 325 327 326 328 326 326 324 327 326 326 329 331 334 335 333 333 334 333 336 341 343 345 344 347 340 356 3 1 359 357 357 1 4 6 7 6 6 5 355 352 339 344 348 347 11 16 9 1 339 231 173 167 170 171 172 175
116 121 123 127 128 131 133 141 151 164 159 168 177 201 234 274 278 285 292 304 310 312 309 312 319 318 316 309 310 315 320 316 315 315 317 324 327 329 329 331 332 333 332 336 335 334 333 337 338 342 345 342 341 336 348 4 3 1 359 1 4 7 9 11 10 8 7 6 359 356 357 359 4 9 11 9 7 8 355 344 172 165 169 173 170